TimePDT,TemperatureF,Dew PointF,Humidity,Sea Level PressureIn,VisibilityMPH,Wind Direction,Wind SpeedMPH,Gust SpeedMPH,PrecipitationIn,Events,Conditions,WindDirDegrees,DateUTC
12:15 AM,62.6,42.8,48,29.84,10.0,NNW,4.6,-,N/A,,Clear,340,2013-09-15 07:15:00
12:35 AM,60.8,42.8,52,29.84,10.0,North,8.1,-,N/A,,Clear,10,2013-09-15 07:35:00
12:55 AM,59.0,41.0,51,29.84,10.0,Calm,Calm,-,N/A,,Clear,0,2013-09-15 07:55:00
1:15 AM,59.0,42.8,55,29.84,10.0,WNW,3.5,-,N/A,,Clear,290,2013-09-15 08:15:00
1:35 AM,62.6,42.8,48,29.84,10.0,North,4.6,-,N/A,,Clear,10,2013-09-15 08:35:00
1:55 AM,60.8,42.8,52,29.85,10.0,West,3.5,-,N/A,,Clear,280,2013-09-15 08:55:00
2:15 AM,60.8,42.8,52,29.85,10.0,Calm,Calm,-,N/A,,Clear,0,2013-09-15 09:15:00
2:35 AM,60.8,42.8,52,29.85,10.0,Calm,Calm,-,N/A,,Clear,0,2013-09-15 09:35:00
2:55 AM,60.8,41.0,48,29.85,10.0,Calm,Calm,-,N/A,,Clear,0,2013-09-15 09:55:00
3:15 AM,59.0,41.0,51,29.85,10.0,Calm,Calm,-,N/A,,Clear,0,2013-09-15 10:15:00
3:35 AM,57.2,41.0,55,29.86,10.0,Calm,Calm,-,N/A,,Clear,0,2013-09-15 10:35:00
3:55 AM,59.0,42.8,55,29.86,10.0,Calm,Calm,-,N/A,,Clear,0,2013-09-15 10:55:00
4:15 AM,59.0,42.8,55,29.86,10.0,Calm,Calm,-,N/A,,Clear,0,2013-09-15 11:15:00
4:35 AM,55.4,39.2,54,29.86,10.0,Calm,Calm,-,N/A,,Clear,0,2013-09-15 11:35:00
4:55 AM,57.2,41.0,55,29.86,10.0,Calm,Calm,-,N/A,,Clear,0,2013-09-15 11:55:00
5:15 AM,57.2,41.0,55,29.86,10.0,Calm,Calm,-,N/A,,Clear,0,2013-09-15 12:15:00
5:35 AM,53.6,39.2,58,29.86,10.0,Calm,Calm,-,N/A,,Clear,0,2013-09-15 12:35:00
5:55 AM,53.6,39.2,58,29.86,10.0,NE,3.5,-,N/A,,Clear,50,2013-09-15 12:55:00
6:15 AM,53.6,39.2,58,29.86,10.0,NNE,4.6,-,N/A,,Partly Cloudy,30,2013-09-15 13:15:00
6:35 AM,55.4,41.0,58,29.86,10.0,ENE,3.5,-,N/A,,Partly Cloudy,70,2013-09-15 13:35:00
6:55 AM,57.2,42.8,59,29.86,10.0,Calm,Calm,-,N/A,,Clear,0,2013-09-15 13:55:00
7:15 AM,57.2,42.8,59,29.87,10.0,Calm,Calm,-,N/A,,Clear,0,2013-09-15 14:15:00
7:35 AM,57.2,41.0,55,29.87,10.0,SE,4.6,-,N/A,,Clear,140,2013-09-15 14:35:00
7:55 AM,59.0,42.8,55,29.86,10.0,SE,4.6,-,N/A,,Clear,130,2013-09-15 14:55:00
8:15 AM,69.8,48.2,46,29.86,10.0,SSE,9.2,-,N/A,,Partly Cloudy,160,2013-09-15 15:15:00
8:35 AM,73.4,48.2,41,29.86,10.0,SSE,10.4,-,N/A,,Clear,160,2013-09-15 15:35:00
8:55 AM,75.2,46.4,36,29.85,10.0,SSE,16.1,27.6,N/A,,Clear,150,2013-09-15 15:55:00
9:15 AM,78.8,46.4,32,29.85,10.0,SSE,17.3,31.1,N/A,,Clear,160,2013-09-15 16:15:00
9:35 AM,78.8,46.4,32,29.84,10.0,SE,23.0,33.4,N/A,,Clear,140,2013-09-15 16:35:00
9:55 AM,80.6,44.6,28,29.84,10.0,SE,19.6,29.9,N/A,,Clear,140,2013-09-15 16:55:00
10:15 AM,80.6,46.4,30,29.84,10.0,SE,19.6,27.6,N/A,,Clear,140,2013-09-15 17:15:00
10:35 AM,82.4,46.4,28,29.83,10.0,SSE,21.9,25.3,N/A,,Clear,150,2013-09-15 17:35:00
10:55 AM,82.4,46.4,28,29.83,10.0,SSE,16.1,28.8,N/A,,Clear,160,2013-09-15 17:55:00
11:15 AM,82.4,46.4,28,29.82,10.0,SSE,20.7,31.1,N/A,,Clear,160,2013-09-15 18:15:00
11:35 AM,80.6,44.6,28,29.82,10.0,SE,21.9,-,N/A,,Clear,140,2013-09-15 18:35:00
11:55 AM,84.2,46.4,27,29.81,10.0,SSE,21.9,29.9,N/A,,Clear,150,2013-09-15 18:55:00
12:15 PM,84.2,46.4,27,29.81,10.0,SE,24.2,31.1,N/A,,Clear,140,2013-09-15 19:15:00
12:35 PM,82.4,46.4,28,29.81,10.0,SSE,15.0,26.5,N/A,,Clear,160,2013-09-15 19:35:00
12:55 PM,84.2,46.4,27,29.80,10.0,SE,21.9,27.6,N/A,,Clear,140,2013-09-15 19:55:00
1:15 PM,86.0,46.4,25,29.80,10.0,SSE,23.0,29.9,N/A,,Clear,150,2013-09-15 20:15:00
1:35 PM,84.2,46.4,27,29.80,10.0,SSE,20.7,29.9,N/A,,Clear,150,2013-09-15 20:35:00
1:55 PM,84.2,46.4,27,29.79,10.0,SSE,19.6,33.4,N/A,,Clear,150,2013-09-15 20:55:00
2:15 PM,84.2,46.4,27,29.78,10.0,SSE,24.2,29.9,N/A,,Clear,150,2013-09-15 21:15:00
2:35 PM,87.8,46.4,24,29.77,10.0,SSE,24.2,32.2,N/A,,Clear,150,2013-09-15 21:35:00
2:55 PM,87.8,46.4,24,29.77,10.0,SSE,21.9,32.2,N/A,,Clear,150,2013-09-15 21:55:00
3:15 PM,87.8,46.4,24,29.75,10.0,SSE,19.6,29.9,N/A,,Clear,150,2013-09-15 22:15:00
3:35 PM,84.2,44.6,25,29.74,10.0,SE,20.7,-,N/A,,Clear,140,2013-09-15 22:35:00
3:55 PM,84.2,46.4,27,29.73,10.0,SE,19.6,27.6,N/A,,Clear,140,2013-09-15 22:55:00
4:15 PM,87.8,46.4,24,29.72,10.0,SE,20.7,28.8,N/A,,Clear,130,2013-09-15 23:15:00
4:35 PM,87.8,46.4,24,29.71,10.0,SE,17.3,28.8,N/A,,Clear,140,2013-09-15 23:35:00
4:55 PM,86.0,46.4,25,29.70,10.0,South,19.6,27.6,N/A,,Clear,170,2013-09-15 23:55:00
5:15 PM,84.2,46.4,27,29.69,10.0,South,20.7,32.2,N/A,,Clear,170,2013-09-16 00:15:00
5:35 PM,84.2,46.4,27,29.69,10.0,South,19.6,28.8,N/A,,Clear,170,2013-09-16 00:35:00
5:55 PM,84.2,46.4,27,29.70,10.0,SSE,21.9,29.9,N/A,,Clear,160,2013-09-16 00:55:00
6:15 PM,84.2,46.4,27,29.70,10.0,SSE,20.7,32.2,N/A,,Clear,160,2013-09-16 01:15:00
6:35 PM,82.4,42.8,25,29.69,9.0,South,36.8,42.6,N/A,,Clear,180,2013-09-16 01:35:00
6:55 PM,80.6,41.0,24,29.71,5.0,South,32.2,46.0,N/A,,Clear,190,2013-09-16 01:55:00
7:15 PM,78.8,42.8,28,29.72,10.0,South,20.7,34.5,N/A,,Clear,190,2013-09-16 02:15:00
7:35 PM,75.2,44.6,34,29.75,5.0,South,40.3,55.2,N/A,,Scattered Clouds,190,2013-09-16 02:35:00
7:55 PM,66.2,46.4,49,29.83,10.0,South,21.9,35.7,0.01,,Mostly Cloudy,190,2013-09-16 02:55:00
8:15 PM,64.4,46.4,52,29.76,10.0,ESE,13.8,-,0.02,,Mostly Cloudy,120,2013-09-16 03:15:00
8:35 PM,66.2,46.4,49,29.77,10.0,SSE,12.7,-,0.02,,Partly Cloudy,150,2013-09-16 03:35:00
8:55 PM,64.4,46.4,52,29.79,10.0,South,9.2,-,0.02,,Clear,180,2013-09-16 03:55:00
9:15 PM,66.2,46.4,49,29.78,10.0,South,11.5,-,N/A,,Clear,190,2013-09-16 04:15:00
9:35 PM,68.0,46.4,46,29.78,10.0,South,12.7,18.4,N/A,,Clear,190,2013-09-16 04:35:00
9:55 PM,66.2,46.4,49,29.77,10.0,SSE,6.9,-,N/A,,Clear,150,2013-09-16 04:55:00
10:15 PM,69.8,46.4,43,29.78,10.0,East,6.9,-,N/A,,Clear,100,2013-09-16 05:15:00
10:35 PM,69.8,44.6,40,29.78,10.0,SSE,5.8,-,N/A,,Clear,150,2013-09-16 05:35:00
10:55 PM,69.8,46.4,43,29.79,10.0,Calm,Calm,-,N/A,,Clear,0,2013-09-16 05:55:00
11:15 PM,66.2,44.6,46,29.79,10.0,SE,10.4,-,N/A,,Clear,140,2013-09-16 06:15:00
11:35 PM,66.2,44.6,46,29.81,10.0,South,5.8,-,N/A,,Clear,180,2013-09-16 06:35:00
11:55 PM,68.0,44.6,43,29.82,10.0,West,9.2,17.3,N/A,,Clear,260,2013-09-16 06:55:00